STARLINK-32428, 61666

Orbit data source: Space-Track

STARLINK-32428, 61666 is a payload satellite owned by SpaceX/Seattle (US) in LEO that was launched on Sat, 26 Oct 2024 UTC via an FALCON 9 launch vehicle from the Air Force Eastern Test Range (AFETR). Payloads include a variety of satellites, spacecraft, and rockets equipped with specific instruments for various scientific and technological missions. These include communications satellites like Starlink; space stations such as the ISS; scientific satellites like the Hubble; Earth observation satellites from companies like Planet Labs, Umbra, and HawkEye 360; GPS; miniature CubeSats for education and research; and military/defense satellites.

Loading next visibility...
STARLINK-32428 details
Identifier
61666, 2024-193F
Orbit
LEO
Last TLE update23 hours ago
Origin
Flag of USSpaceX/Seattle (US)
ManufacturerSpaceX/Seattle
MissionOperational spacecraft
Bus & MotorSTARLINK V2M, Unknown motor
Mass730 kg wet, ~700 kg dry
Launch date (UTC)
2024-10-26 (3 months ago)
Launch vehicle
FALCON 9
Launch site
Air Force Eastern Test Range (AFETR)
Object type
Payload
Rocket body
Debris
Shape & HBRUnknown
Radar Cross SectionLarge (>1 m²)

Expand to show TLE details & history

TLE from 23 hours ago
0 STARLINK-32428
1 61666U 24193F   25013.06370273 -.00000313  00000-0  21429-5 0  9994
2 61666  53.1582 245.7186 0001055  84.5693 275.5432 15.39614427 12115
Epoch: 2025-01-13T01:31Z
Definitive object data (Epoch: 2025-01-13T01:31:43.915Z)
Latitude-0.00006°
Longitude109.99545°
Altitude448.082 km
Speed7.645 km/s
True Right ascension16h 22m 52s
True Declination0° 00' 00"
Sunlit
Object was in daylight at TLE epoch
Visualization TLE readout
Latitude-15.74501°
Longitude-62.33157°
Altitude451.769 km
Speed7.641 km/s
Apparent Right ascension07h 55m 08s
Apparent Declination-44° 17' 46"
Sunlit
Object is in full shadow
Visualization observer readout
Local Sidereal Time00:46:37
Azimuth120.342° SE
Elevation-37.577°
Doppler factor1
Orbital elements
Apogee altitude448.226 km
Perigee altitude446.786 km
Semi-major axis6,825.643 km
Eccentricity0.0001055
Inclination53.1582°
RAAN245.7186°
Arg. of periapsis84.5693°
True anomaly275.53117°
Mean anomaly275.5432°
Eccentric anomaly275.53718°
Mean motion3.84882 °/min
BSTAR0.0000021429
Orbital period93.54 mins
Loading maneuver chart data...
Loading historical data...
Loading historical data...
Loading historical data...
Loading historical data...
Loading historical data...
Loading historical data...
Loading historical data...

STARLINK-32428 Visibility forecast

Observer location: undefined°, undefined

Span
Click to sort rows by Start time (UTC) header in descending order
Start Az.
Max El. time (UTC)
Max El. Az.
Max El.
End time (UTC)
End Az.
6 mins2025-01-14 01:25:12.617Z293.408° NW2025-01-14 01:28:12.617Z214.595° SW32.62°2025-01-14 01:31:12.617Z155.467° SSE
5 mins2025-01-14 18:15:12.617Z259.498° W2025-01-14 18:17:12.617Z333.863° NNW36.521°2025-01-14 18:20:12.617Z39.492° NE
|